[[{"header":{"parameterUnit":"m.s-1","parameterCategory":1,"la1":30.2991,"la2":30.254,"lo1":-89.0895,"lo2":-89.0444,"dy":0.0017,"dx":0.0017,"nx":28,"ny":28,"refTime":"2024-11-29T03:00:00:Z","depth":0,"parameterNumber":2,"parameterNumberName":"U-component_of_WINDS"},"data":[0,0,0,0,0,0,0,0,0,0,0,0,0,0,0,0,0,0,0,0,0,0,0,0,0,0,0,0,0,0,0,0,0,0,0,0,0,0,0,0,0,0,0,0,0,0,0,0,0,0,0,0,0,0,0,0,0,0,-5.0736,-5.0737,0,-5.0794,-5.0794,-5.0795,-5.0672,-5.0668,-5.0664,-5.066,-5.072,-5.0725,-5.073,0,0,0,0,0,0,0,0,0,0,0,0,0,-5.0522,-5.0526,-5.0736,-5.0737,-5.0738,-5.0793,-5.0794,-5.0795,-5.0672,-5.0667,-5.0663,-5.0658,-5.0718,-5.0724,-5.0731,0,0,0,0,0,0,0,0,0,0,0,0,0,-5.0601,-5.0528,-5.0736,-5.0683,-5.0679,-5.0793,-5.0794,-5.0795,-5.0673,-5.0667,-5.0661,-5.0656,-5.0716,-5.0724,-5.0732,-5.0901,0,0,-5.0756,-5.076,0,0,0,0,0,0,0,0,-5.0596,-5.0609,-5.069,-5.0687,-5.0683,-5.0719,-5.074,-5.0831,-5.0675,-5.0676,-5.066,-5.0653,-5.0725,-5.0732,-5.0755,-5.0903,-5.0906,-5.0757,-5.0762,-5.0765,-5.0767,0,0,0,0,0,0,0,-5.0591,-5.0606,-5.0759,-5.0692,-5.0687,-5.0657,-5.0661,-5.0757,-5.0733,-5.0675,-5.0666,-5.0675,-5.0721,-5.0748,-5.0756,-5.0907,-5.0757,-5.0764,-5.0769,-5.0772,-5.1197,-5.1203,0,0,0,0,0,0,-5.0592,-5.0602,-5.0757,-5.0761,-5.0624,-5.0666,-5.0671,-5.0714,-5.0732,-5.0729,-5.068,-5.0669,-5.0737,-5.0747,-5.0758,-5.0957,-5.0765,-5.0772,-5.0777,-5.1191,-5.1199,-5.1206,0,0,0,0,0,0,-5.0588,-5.0607,-5.0755,-5.0679,-5.0695,-5.0676,-5.0725,-5.0718,-5.0744,-5.0735,-5.073,-5.0711,-5.0733,-5.0746,-5.0866,-5.0958,-5.0776,-5.0783,-5.1183,-5.1193,-5.1202,-5.1358,0,0,0,0,0,0,-5.0582,-5.0606,-5.067,-5.0681,-5.07,-5.0863,-5.073,-5.0723,-5.0758,-5.0744,-5.0763,-5.0761,-5.0729,-5.0855,-5.0874,-5.0965,-5.079,-5.1175,-5.1188,-5.1199,-5.1345,-5.1372,-5.1395,0,0,0,0,0,-5.0575,-5.0712,-5.0674,-5.0693,-5.0779,-5.0868,-5.0879,-5.0839,-5.0766,-5.083,-5.0824,-5.076,-5.0944,-5.0868,-5.0889,-5.0984,-5.1169,-5.1184,-5.1198,-5.1333,-5.1367,-5.1395,0,0,0,0,0,0,-5.0713,-5.0712,-5.067,-5.0815,-5.0842,-5.0847,-5.0927,-5.0876,-5.0925,-5.091,-5.0859,-5.0864,-5.0994,-5.1,-5.0916,-5.1149,-5.1044,-5.1064,-5.114,-5.1172,-5.1196,-5.1193,-5.0796,0,0,0,0,0,-5.076,-5.0831,-5.0827,-5.0955,-5.0971,-5.0947,-5.0984,-5.0951,-5.0978,-5.0989,-5.0992,-5.1021,-5.1085,-5.1128,-5.1187,-5.1344,-5.1347,-5.142,-5.1445,-5.1466,-5.1484,-5.1569,-5.1601,-5.1254,-5.1254,-5.1253,0,0,-5.0858,-5.0866,-5.0915,-5.0983,-5.1,-5.1077,-5.0958,-5.1043,-5.1099,-5.1002,-5.1115,-5.1119,-5.1147,-5.1287,-5.1349,-5.1297,-5.1581,-5.1485,-5.1502,-5.1508,-5.1587,-5.162,-5.165,-5.1264,-5.1262,-5.126,0,0,-5.1075,-5.1089,-5.1197,-5.1217,-5.1245,-5.1228,-5.1254,-5.1267,-5.1265,-5.1378,-5.1307,-5.1373,-5.1485,-5.1508,-5.1535,-5.1762,-5.1706,-5.1783,-5.1915,-5.1999,-5.2026,-5.205,-5.2132,-5.2162,-5.18,-5.1801,-5.1801,0,-5.1194,-5.1305,-5.1259,-5.135,-5.1383,-5.1298,-5.1407,-5.1429,-5.1475,-5.15,-5.144,-5.1579,-5.1592,-5.1736,-5.1792,-5.1816,-5.1845,-5.1781,-5.2026,-5.2049,-5.2071,-5.2149,-5.218,-5.181,-5.1809,-5.1808,-5.1807,0,-5.145,-5.1529,-5.1613,-5.1659,-5.1701,-5.1801,-5.1771,-5.1818,-5.1782,-5.1772,-5.1888,-5.1901,-5.1961,-5.1992,-5.1958,-5.2133,-5.21,-5.2034,-5.1928,-5.2114,-5.2187,-5.2216,-5.1823,-5.182,-5.1817,-5.1815,0,0,-5.1757,-5.1777,-5.1808,-5.1829,-5.1853,-5.1913,-5.2009,-5.2068,-5.211,-5.2145,-5.2225,-5.2321,-5.226,-5.2291,-5.2258,-5.2331,-5.2512,-5.2256,-5.2256,-5.2304,-5.2706,-5.2757,-5.2792,-5.2474,-5.2479,-5.2483,-5.2704,0,-5.1973,-5.2138,-5.21,-5.2263,-5.2336,-5.2256,-5.234,-5.2365,-5.2358,-5.2418,-5.241,-5.248,-5.2394,-5.2412,-5.248,-5.2475,-5.2592,-5.2458,-5.2549,-5.2552,-5.2545,-5.2829,-5.2883,-5.3091,-5.2732,-5.2737,-5.274,0,-5.2248,-5.2293,-5.2464,-5.2477,-5.2506,-5.2582,-5.2633,-5.2691,-5.2718,-5.2707,-5.2742,-5.2695,-5.279,-5.2683,-5.2815,-5.2725,-5.276,-5.2763,-5.277,-5.2778,-5.2659,-5.2846,-5.3156,-5.3188,-5.2784,-5.2781,-5.2778,0,-5.2456,-5.2559,-5.2675,-5.2694,-5.2713,-5.2768,-5.2778,-5.2799,-5.2836,-5.2881,-5.2905,-5.296,-5.2991,-5.3035,-5.3004,-5.2929,-5.3142,-5.3032,-5.3137,-5.3138,-5.3186,-5.3184,-5.3507,-5.3207,-5.3206,-5.3206,-5.3205,0,-5.2703,-5.2811,-5.2769,-5.284,-5.2959,-5.2913,-5.3032,-5.3033,-5.3052,-5.3123,-5.3057,-5.3125,-5.3079,-5.3144,-5.312,-5.3234,-5.3248,-5.3243,-5.3236,-5.325,-5.325,-5.3272,-5.3257,-5.3214,-5.3212,-5.3211,-5.3209,0,-5.2956,-5.2932,-5.3053,-5.306,-5.3064,-5.3152,-5.3158,-5.3224,-5.3212,-5.3302,-5.3321,-5.3302,-5.3374,-5.3348,-5.3425,-5.3409,-5.3554,-5.3527,-5.3546,-5.3539,-5.3646,-5.3637,-5.3996,-5.4041,-5.3711,-5.3714,-5.3717,0,-5.3115,-5.3196,-5.3212,-5.3254,-5.3269,-5.3338,-5.3376,-5.3335,-5.3378,-5.3414,-5.3477,-5.3543,-5.3594,-5.3713,-5.3707,-5.3766,-5.3741,-5.3862,-5.3749,-5.3761,-5.3744,-5.374,-5.3748,-5.3885,-5.3889,-5.3892,-5.3895,0,-5.3401,-5.3385,-5.3442,-5.3497,-5.3544,-5.3584,-5.3619,-5.3657,-5.3618,-5.3669,-5.3742,-5.3782,-5.386,-5.3927,-5.398,-5.3991,-5.3938,-5.393,-5.3958,-5.3974,-5.3981,-5.398,-5.3609,-5.3923,-5.392,-5.3918,-5.3916,-5.3915,-5.3613,-5.3681,-5.3704,-5.377,-5.3791,-5.3825,-5.3888,-5.3884,-5.3944,-5.4005,-5.3976,-5.4061,-5.4086,-5.4151,-5.4169,-5.4235,-5.4188,-5.4228,-5.4238,-5.4249,-5.4264,-5.397,-5.4245,-5.4244,-5.4243,-5.4242,-5.4242,0,-5.3896,-5.3906,-5.3968,-5.4018,-5.4071,-5.4015,-5.405,-5.4098,-5.4173,-5.42,-5.4252,-5.4336,-5.4401,-5.44,-5.446,-5.4513,-5.449,-5.4531,-5.4527,-5.4531,-5.4302,-5.4272,-5.4548,-5.4548,-5.4548,-5.4548,-5.4548,-5.4548,-5.405,-5.4163,-5.4151,-5.4274,-5.4283,-5.4366,-5.4391,-5.4422,-5.4444,-5.4541,-5.4594,-5.4593,-5.4609,-5.467,-5.4727,-5.4725,-5.4751,-5.4801,-5.479,-5.4577,-5.4547,-5.4518,-5.449,-5.4807,-5.4807,-5.5013,-5.5015,-5.5017]},{"header":{"parameterUnit":"m.s-1","parameterCategory":1,"la1":30.2991,"la2":30.254,"lo1":-89.0895,"lo2":-89.0444,"dy":0.0017,"dx":0.0017,"nx":28,"ny":28,"refTime":"2024-11-29T03:00:00:Z","depth":0,"parameterNumber":3,"parameterNumberName":"V-component_of_WINDS"},"data":[0,0,0,0,0,0,0,0,0,0,0,0,0,0,0,0,0,0,0,0,0,0,0,0,0,0,0,0,0,0,0,0,0,0,0,0,0,0,0,0,0,0,0,0,0,0,0,0,0,0,0,0,0,0,0,0,0,0,-3.1056,-3.1057,0,-3.1074,-3.1074,-3.1074,-3.1047,-3.1046,-3.1045,-3.1044,-3.1061,-3.1062,-3.1063,0,0,0,0,0,0,0,0,0,0,0,0,0,-3.0997,-3.0999,-3.1056,-3.1057,-3.1057,-3.1074,-3.1074,-3.1074,-3.1047,-3.1046,-3.1044,-3.1043,-3.106,-3.1062,-3.1063,0,0,0,0,0,0,0,0,0,0,0,0,0,-3.102,-3.0999,-3.1056,-3.1045,-3.1044,-3.1074,-3.1074,-3.1074,-3.1047,-3.1046,-3.1044,-3.1043,-3.106,-3.1062,-3.1064,-3.1104,0,0,-3.107,-3.1071,0,0,0,0,0,0,0,0,-3.1019,-3.1022,-3.1047,-3.1046,-3.1045,-3.1057,-3.1059,-3.1084,-3.1047,-3.1046,-3.1044,-3.1042,-3.106,-3.1062,-3.1069,-3.1105,-3.1106,-3.107,-3.1071,-3.1072,-3.1073,0,0,0,0,0,0,0,-3.1017,-3.1021,-3.1063,-3.1047,-3.1046,-3.1039,-3.104,-3.1064,-3.1061,-3.1046,-3.1044,-3.1046,-3.106,-3.1067,-3.1069,-3.1106,-3.107,-3.1072,-3.1073,-3.1074,-3.1175,-3.1176,0,0,0,0,0,0,-3.1017,-3.102,-3.1063,-3.1064,-3.1028,-3.1041,-3.1043,-3.1054,-3.1061,-3.106,-3.1048,-3.1045,-3.1064,-3.1066,-3.1069,-3.1116,-3.1072,-3.1074,-3.1075,-3.1173,-3.1175,-3.1177,0,0,0,0,0,0,-3.1016,-3.1021,-3.1062,-3.1041,-3.1046,-3.1043,-3.1057,-3.1055,-3.1062,-3.1062,-3.1061,-3.1056,-3.1063,-3.1066,-3.1095,-3.1116,-3.1075,-3.1077,-3.1172,-3.1174,-3.1176,-3.1211,0,0,0,0,0,0,-3.1014,-3.1021,-3.1037,-3.1042,-3.1047,-3.1089,-3.1058,-3.1057,-3.1066,-3.1063,-3.1069,-3.1069,-3.1062,-3.1093,-3.1097,-3.1118,-3.1078,-3.117,-3.1173,-3.1175,-3.1208,-3.1214,-3.1219,0,0,0,0,0,-3.1012,-3.1046,-3.1038,-3.1043,-3.1067,-3.109,-3.1093,-3.1085,-3.1068,-3.1083,-3.1083,-3.1068,-3.1113,-3.1096,-3.1101,-3.1123,-3.1168,-3.1172,-3.1175,-3.1205,-3.1213,-3.1219,0,0,0,0,0,0,-3.1044,-3.1047,-3.1038,-3.1074,-3.1082,-3.1085,-3.1105,-3.1093,-3.1106,-3.1103,-3.1092,-3.1093,-3.1124,-3.1126,-3.1107,-3.1161,-3.1138,-3.1142,-3.1159,-3.1166,-3.1172,-3.117,-3.108,0,0,0,0,0,-3.1056,-3.1074,-3.1075,-3.1108,-3.1112,-3.1108,-3.1117,-3.111,-3.1118,-3.1121,-3.1122,-3.113,-3.1145,-3.1156,-3.117,-3.1208,-3.1208,-3.1225,-3.1231,-3.1236,-3.1239,-3.1258,-3.1265,-3.1188,-3.1188,-3.1188,0,0,-3.1079,-3.1083,-3.1095,-3.1114,-3.1119,-3.1138,-3.1111,-3.1132,-3.1145,-3.1124,-3.1151,-3.1153,-3.116,-3.1193,-3.1208,-3.1196,-3.1261,-3.124,-3.1244,-3.1245,-3.1262,-3.1269,-3.1276,-3.119,-3.119,-3.1189,0,0,-3.1132,-3.1137,-3.1163,-3.1169,-3.1177,-3.1173,-3.118,-3.1184,-3.1184,-3.1211,-3.1195,-3.1211,-3.1238,-3.1243,-3.125,-3.1302,-3.1289,-3.1307,-3.1337,-3.1355,-3.1361,-3.1366,-3.1384,-3.139,-3.1311,-3.1311,-3.1311,0,-3.116,-3.1188,-3.1179,-3.12,-3.1208,-3.119,-3.1216,-3.1221,-3.1234,-3.1239,-3.1226,-3.1258,-3.1262,-3.1295,-3.1308,-3.1314,-3.132,-3.1306,-3.1361,-3.1366,-3.1371,-3.1387,-3.1394,-3.1313,-3.1313,-3.1313,-3.1313,0,-3.1221,-3.1241,-3.1261,-3.1273,-3.1283,-3.1307,-3.13,-3.1312,-3.1304,-3.1301,-3.1328,-3.1332,-3.1346,-3.1353,-3.1346,-3.1385,-3.1377,-3.1363,-3.1339,-3.1381,-3.1396,-3.1402,-3.1316,-3.1316,-3.1315,-3.1315,0,0,-3.1295,-3.13,-3.1308,-3.1312,-3.1318,-3.1333,-3.1355,-3.1369,-3.1378,-3.1387,-3.1404,-3.1427,-3.1413,-3.1421,-3.1413,-3.1429,-3.1469,-3.1412,-3.1412,-3.1422,-3.151,-3.152,-3.1528,-3.146,-3.1461,-3.1462,-3.1509,0,-3.1346,-3.1384,-3.1376,-3.1414,-3.143,-3.1412,-3.1431,-3.1437,-3.1435,-3.1449,-3.1447,-3.1462,-3.1443,-3.1447,-3.1462,-3.1461,-3.1486,-3.1457,-3.1475,-3.1476,-3.1473,-3.1536,-3.1547,-3.1592,-3.1515,-3.1516,-3.1517,0,-3.1411,-3.1421,-3.146,-3.1462,-3.1469,-3.1487,-3.1497,-3.1511,-3.1516,-3.1514,-3.1521,-3.151,-3.1531,-3.1507,-3.1535,-3.1516,-3.1523,-3.1523,-3.1524,-3.1525,-3.1498,-3.1537,-3.1606,-3.1612,-3.1526,-3.1526,-3.1525,0,-3.1459,-3.1483,-3.1508,-3.1513,-3.1516,-3.1529,-3.1531,-3.1535,-3.1543,-3.1552,-3.1557,-3.1569,-3.1575,-3.1584,-3.1576,-3.156,-3.1605,-3.1581,-3.1603,-3.1603,-3.1613,-3.1612,-3.1682,-3.1619,-3.1619,-3.1619,-3.1619,0,-3.1516,-3.154,-3.153,-3.1546,-3.1572,-3.1562,-3.1588,-3.1587,-3.1591,-3.1606,-3.1591,-3.1605,-3.1594,-3.1608,-3.1602,-3.1625,-3.1628,-3.1626,-3.1624,-3.1627,-3.1627,-3.1631,-3.1627,-3.162,-3.162,-3.162,-3.1619,0,-3.1574,-3.1568,-3.1595,-3.1596,-3.1596,-3.1615,-3.1615,-3.163,-3.1626,-3.1645,-3.1649,-3.1644,-3.1658,-3.1652,-3.1667,-3.1663,-3.1693,-3.1687,-3.1691,-3.1689,-3.171,-3.1708,-3.1784,-3.1793,-3.1726,-3.1726,-3.1727,0,-3.161,-3.1629,-3.1631,-3.1639,-3.1642,-3.1657,-3.1664,-3.1654,-3.1663,-3.167,-3.1683,-3.1696,-3.1706,-3.173,-3.1727,-3.1738,-3.1732,-3.1758,-3.1734,-3.1735,-3.1731,-3.1729,-3.173,-3.1763,-3.1763,-3.1764,-3.1765,0,-3.1675,-3.1671,-3.1683,-3.1693,-3.1703,-3.1711,-3.1717,-3.1725,-3.1715,-3.1725,-3.174,-3.1747,-3.1762,-3.1775,-3.1785,-3.1786,-3.1773,-3.1772,-3.1778,-3.178,-3.1781,-3.178,-3.1703,-3.177,-3.177,-3.1769,-3.1769,-3.1769,-3.1723,-3.1737,-3.174,-3.1754,-3.1757,-3.1763,-3.1776,-3.1774,-3.1786,-3.1797,-3.179,-3.1807,-3.181,-3.1821,-3.1824,-3.1836,-3.1826,-3.1834,-3.1836,-3.1838,-3.184,-3.178,-3.1838,-3.1838,-3.1838,-3.1838,-3.1838,0,-3.1786,-3.1786,-3.1799,-3.1807,-3.1817,-3.1805,-3.1811,-3.182,-3.1834,-3.1839,-3.1848,-3.1864,-3.1876,-3.1874,-3.1884,-3.1894,-3.1889,-3.1897,-3.1896,-3.1896,-3.185,-3.1843,-3.1902,-3.1902,-3.1902,-3.1902,-3.1902,-3.1901,-3.1819,-3.1843,-3.1838,-3.1863,-3.1863,-3.1879,-3.1883,-3.1888,-3.1891,-3.1909,-3.1919,-3.1917,-3.1919,-3.1929,-3.1939,-3.1938,-3.1942,-3.1953,-3.195,-3.1906,-3.19,-3.1894,-3.1887,-3.1954,-3.1954,-3.1995,-3.1995,-3.1995]}]]